Theta_e
309 307 306 307 307 305 307 309 313 311 309 304 304 302 303 304 303 302 302 301 301 300 300 298 297 295 293 292 291 289 289 288 288 288 289 288 288 288 288 287 287 286 285 284
305 306 305 306 306 304 306 306 305 305 305 303 304 303 301 302 302 301 300 298 299 298 297 298 296 295 293 293 291 290 289 288 288 288 288 288 288 288 288 287 287 285 284 283
311 300 302 308 305 306 305 304 306 307 306 294 296 297 299 300 298 297 298 297 296 295 296 296 296 294 293 293 291 290 289 289 288 288 288 288 288 288 287 287 285 284 283 282
302 299 306 302 293 298 305 304 299 294 291 293 294 296 296 297 297 296 296 295 294 293 293 294 294 293 292 291 290 290 289 289 288 288 288 288 288 288 287 286 284 283 282 282
305 302 301 301 293 293 295 296 292 295 294 294 294 293 293 294 294 294 294 293 292 292 291 291 290 290 290 290 290 290 289 288 288 288 288 288 288 287 286 284 283 282 282 282
294 301 304 297 292 293 293 294 289 293 292 290 291 288 288 292 292 293 293 293 292 291 291 290 290 290 289 289 289 289 289 288 287 287 287 288 287 286 284 283 282 281 281 281
300 303 299 291 290 293 294 297 290 292 293 291 288 291 292 292 293 293 292 292 291 291 290 290 290 288 289 289 289 289 288 287 287 287 287 287 286 285 283 282 281 281 281 280
294 298 301 291 290 294 293 292 294 293 292 292 292 292 292 292 292 292 292 291 291 290 290 290 289 288 288 289 289 288 288 287 287 287 286 286 285 283 281 280 280 280 280 280
295 295 291 291 293 294 294 294 293 293 293 292 292 292 292 292 292 291 291 291 291 290 290 290 289 289 288 288 288 288 287 286 286 286 285 284 283 281 280 279 279 279 279 278
290 290 290 292 294 294 294 294 294 294 293 292 292 292 291 291 291 291 291 291 291 290 290 290 289 289 288 288 288 287 286 285 285 285 284 282 281 280 279 278 278 278 277 277
288 289 290 292 293 294 294 294 294 293 293 292 292 291 291 291 291 291 290 290 290 290 290 289 289 289 288 288 287 286 285 284 284 283 282 281 279 279 278 277 277 277 276 273
289 291 292 293 293 293 293 292 292 292 292 291 291 291 291 291 291 291 291 290 290 290 290 289 289 288 288 287 286 285 284 284 282 282 280 278 278 278 276 276 275 275 274 270
291 293 293 293 293 293 293 293 292 292 291 291 291 291 291 291 291 290 290 290 290 290 289 289 288 287 286 285 284 284 283 281 281 280 278 277 277 276 277 276 275 275 274 272
293 293 292 292 293 293 293 293 292 291 291 291 291 291 291 291 291 290 290 290 289 289 289 288 287 285 284 283 282 281 280 281 279 277 276 276 275 275 275 275 275 274 273 272
293 293 293 293 293 293 293 292 291 291 291 291 291 291 291 290 290 290 290 289 289 288 287 286 285 283 282 281 281 280 280 279 277 276 275 274 274 273 273 273 273 273 273 273
293 293 292 292 292 292 292 291 291 291 291 290 291 291 290 290 290 289 288 287 287 286 284 283 282 281 281 280 279 278 277 276 275 274 273 273 272 272 272 271 271 271 271 272
292 291 291 291 291 292 291 292 291 291 291 290 290 290 290 289 288 287 286 285 284 283 282 281 279 278 278 277 276 275 274 274 273 273 273 271 271 271 270 270 270 271 271 270
293 293 292 292 292 291 291 291 291 290 290 290 290 289 288 287 286 284 283 282 281 280 279 278 277 275 275 274 274 273 273 272 271 271 270 270 270 269 269 269 269 270 270 269
293 292 292 291 291 290 290 290 289 290 289 288 287 286 285 284 282 281 280 279 278 278 276 275 275 273 273 272 272 272 271 270 270 269 268 268 268 268 268 269 269 268 269 269
291 291 290 290 289 289 288 288 287 287 286 284 283 282 282 280 279 278 277 276 275 274 274 273 273 272 271 270 270 269 268 268 267 267 267 267 267 267 268 268 268 268 268 268
288 288 287 287 286 285 284 284 283 282 281 280 279 279 278 277 276 275 274 273 273 272 272 271 270 269 269 268 267 267 266 266 265 265 266 266 266 267 267 267 267 268 268 268
284 284 284 284 283 282 281 280 279 279 278 277 276 275 275 274 273 272 272 271 270 270 269 268 268 267 266 265 265 264 264 264 264 264 265 265 266 266 266 267 267 267 267 267
280 280 280 279 279 279 277 276 275 275 275 274 274 273 273 272 271 271 270 269 269 268 267 267 266 265 265 265 264 264 263 263 263 264 264 265 265 265 266 266 267 267 267 266
276 276 276 276 275 274 274 274 273 273 273 272 272 271 271 271 270 269 269 267 267 267 266 266 265 265 265 265 264 264 263 263 264 264 264 265 265 265 266 266 265 265 266 266
272 273 273 273 273 273 273 272 272 271 270 270 269 269 269 269 268 267 267 266 266 266 266 265 265 264 265 264 264 264 264 264 264 264 264 265 265 265 265 265 265 266 266 266
271 271 271 271 271 270 270 270 269 269 268 268 268 267 267 266 266 266 266 266 266 266 266 265 265 265 265 265 264 264 264 264 264 264 265 264 264 265 265 265 265 265 265 265
269 269 269 269 269 269 268 268 268 268 267 267 266 266 266 265 265 265 265 265 265 265 265 265 265 265 265 265 264 264 264 264 264 264 264 264 264 264 264 265 265 265 266 266
Wind_Speed
2 3 4 6 7 9 10 11 12 14 15 7 11 9 18 17 14 16 16 19 22 23 24 25 26 25 22 18 17 17 17 17 16 16 16 18 21 24 26 29 31 32 33 35
2 2 4 6 11 11 15 6 6 4 13 7 12 16 15 18 18 19 22 18 16 17 18 23 26 26 23 20 19 20 21 22 22 20 19 21 24 26 29 31 33 33 35 36
8 4 6 10 13 15 7 5 10 14 14 3 5 12 18 18 17 17 16 15 15 16 16 17 19 21 22 19 21 23 24 26 26 25 24 26 27 28 30 33 34 35 36 36
3 3 8 2 2 3 14 10 9 1 4 8 7 10 11 13 14 15 16 16 14 11 10 11 13 17 20 23 25 28 29 29 29 28 28 28 29 31 33 34 34 36 35 37
4 6 7 6 5 7 8 10 10 11 7 8 7 5 8 10 11 12 13 12 12 11 11 10 10 13 19 26 30 32 32 31 31 30 30 30 32 34 34 34 35 36 36 38
4 4 7 3 2 6 6 6 10 17 11 11 11 2 5 6 12 14 14 14 13 11 12 14 19 22 23 25 26 28 30 31 31 30 30 31 34 34 33 34 36 36 36 37
6 7 7 5 6 12 5 7 7 17 14 19 5 9 12 12 12 14 15 17 15 14 20 20 20 20 22 24 27 26 28 29 30 29 30 31 34 34 34 34 35 35 37 37
2 3 10 12 5 8 5 7 15 17 17 15 11 12 15 17 15 13 17 21 17 19 23 22 22 22 24 26 26 28 30 30 29 28 29 33 33 33 33 33 34 34 36 37
10 6 2 28 5 15 16 19 17 19 19 14 12 12 14 18 19 16 19 24 22 24 25 26 25 24 27 28 29 30 31 30 29 29 31 32 32 33 32 31 31 33 35 36
3 3 6 21 21 10 19 18 17 18 16 12 13 19 20 19 23 21 22 25 28 28 29 29 27 28 31 31 31 32 32 30 29 31 31 31 31 31 31 29 29 30 33 34
1 1 4 13 22 21 19 19 21 21 20 21 22 23 23 22 20 24 23 25 28 29 29 28 27 29 32 34 33 32 31 30 30 31 31 30 29 29 28 26 27 29 31 31
4 13 13 14 26 22 24 25 23 21 23 24 22 22 21 22 22 21 23 25 24 25 25 27 28 30 32 33 32 32 32 31 31 31 29 29 29 28 24 24 23 25 26 22
6 13 19 20 19 22 21 23 23 22 24 25 25 24 23 23 22 22 24 24 24 24 25 27 28 29 31 30 30 31 32 31 31 29 28 28 27 27 29 23 20 22 24 22
23 22 17 26 24 26 24 25 22 21 21 22 21 20 21 22 24 25 23 23 24 26 26 26 26 25 27 28 30 30 30 31 29 28 28 27 26 26 26 27 28 21 18 22
30 29 31 32 30 31 29 27 24 24 26 24 23 23 23 25 25 24 24 25 24 23 24 25 25 24 26 28 29 29 29 27 27 28 27 26 24 24 24 25 25 24 19 17
32 29 30 31 35 34 34 31 29 31 29 26 24 24 24 25 26 26 24 22 21 22 22 23 24 22 28 28 27 27 27 27 27 27 25 23 23 23 23 23 22 21 20 19
32 29 31 30 33 32 31 31 30 29 26 26 24 24 25 24 24 23 22 21 21 21 22 22 21 23 26 27 26 26 26 26 26 25 23 22 23 22 21 21 20 20 18 17
42 39 35 34 35 32 29 25 22 24 28 29 27 24 22 21 21 20 20 20 19 19 19 22 24 24 25 25 25 25 26 25 24 24 22 22 21 21 20 20 20 19 18 16
35 33 34 33 31 30 27 25 23 24 24 22 20 19 17 17 17 16 15 15 16 18 18 21 23 23 22 23 24 26 26 25 24 23 22 21 20 20 20 20 19 18 19 19
26 25 24 23 21 20 20 19 17 16 16 15 14 13 12 12 11 11 12 11 14 17 18 20 22 24 24 24 25 27 25 23 22 21 20 20 19 19 20 20 20 19 19 20
17 17 15 13 12 11 11 11 11 11 10 9 7 7 7 8 7 8 10 10 15 17 19 20 21 22 23 23 23 23 22 21 20 19 19 20 20 20 20 19 20 20 20 20
8 8 8 8 8 8 9 8 8 7 6 5 5 4 4 5 6 8 11 11 13 15 15 15 16 16 15 16 18 18 18 18 18 18 19 19 19 19 19 19 19 19 19 19
5 6 7 8 8 9 11 10 9 7 6 5 4 4 5 5 7 7 10 11 11 11 10 11 11 11 12 14 14 14 15 15 17 18 18 18 19 19 19 19 18 18 18 19
6 8 9 9 9 8 7 8 7 5 4 3 3 3 4 5 6 7 7 6 7 8 10 10 10 11 12 12 13 14 16 17 18 17 17 18 18 18 18 18 19 18 19 20
8 9 10 10 9 8 7 5 4 3 3 2 2 3 3 5 5 5 5 7 8 10 10 10 11 12 14 14 14 15 16 16 16 16 16 17 16 17 18 19 19 20 21 21
8 8 8 9 7 6 5 4 3 2 2 1 2 3 3 3 4 5 6 8 8 10 11 11 12 12 13 13 14 14 15 16 16 16 17 17 18 19 19 19 20 20 20 20
8 8 7 6 5 4 3 2 1 1 1 1 1 3 3 5 6 7 7 8 9 10 10 11 12 12 13 13 14 15 16 16 16 17 17 18 18 18 18 19 20 20 20 20
Wind_Direction
205 164 183 205 205 176 196 214 224 257 232 178 206 207 213 216 222 223 223 242 247 252 258 255 245 238 234 235 237 239 242 249 260 271 286 301 310 314 314 314 314 313 313 314
279 170 223 261 235 189 211 208 241 224 261 175 237 244 241 238 235 237 258 249 245 251 256 254 244 238 237 238 242 242 247 253 259 268 280 292 300 307 310 310 309 309 311 312
244 81 60 274 227 214 205 192 219 230 239 150 208 216 226 236 235 237 231 236 241 244 250 252 242 238 238 245 244 246 250 255 260 265 273 283 290 301 306 306 306 309 310 311
140 88 228 250 102 149 213 233 207 31 217 203 188 211 217 221 221 222 230 232 232 240 246 243 237 241 247 251 252 254 255 257 260 265 271 278 288 299 303 303 305 308 308 311
184 200 320 266 180 160 166 243 178 208 228 203 206 190 234 218 234 236 235 239 245 244 238 229 237 257 265 265 265 261 260 260 262 263 269 280 289 295 298 299 303 306 309 313
135 199 235 296 112 126 90 265 202 197 206 165 148 148 250 290 256 244 245 252 247 227 235 256 271 275 272 269 270 271 268 262 260 262 272 283 288 293 295 298 303 306 308 311
211 230 273 216 170 143 140 260 178 196 186 162 172 216 287 279 246 247 255 248 228 250 283 280 275 278 275 271 272 267 260 258 259 265 276 285 289 291 293 298 301 304 309 312
122 228 267 162 107 172 194 146 162 169 172 190 239 265 264 262 250 250 254 238 241 281 285 273 271 278 278 273 271 262 258 259 262 272 282 287 286 289 292 298 301 305 307 311
190 202 85 176 186 194 165 172 184 194 206 220 241 269 279 271 252 270 267 240 260 279 274 270 266 276 280 274 268 262 260 261 267 277 283 284 286 287 292 297 301 305 308 312
99 196 200 198 214 214 219 231 237 236 236 233 260 288 277 275 260 272 273 261 267 271 267 269 263 275 277 264 263 262 261 264 271 278 280 281 282 285 292 298 302 306 309 312
250 247 189 241 228 222 234 244 247 247 248 256 273 277 273 274 273 271 277 272 268 269 271 267 267 276 270 261 260 263 265 270 276 280 280 280 281 287 292 298 302 308 312 315
207 199 186 212 218 239 244 246 252 256 263 267 272 274 275 269 278 275 276 277 268 266 267 264 269 269 264 260 262 265 269 273 278 280 281 281 284 287 291 298 304 305 302 296
205 242 232 252 259 262 251 259 256 255 262 270 274 276 273 272 276 278 274 272 269 270 267 266 266 264 259 260 264 267 271 274 279 280 280 281 285 291 298 299 300 301 299 300
250 248 242 249 250 265 266 268 264 257 257 259 259 261 260 267 275 275 275 274 272 271 266 267 263 261 260 262 266 269 273 276 278 279 279 282 285 290 296 301 305 305 297 304
254 246 251 266 271 269 267 267 257 258 265 256 252 254 260 269 271 272 270 268 265 262 261 262 265 266 269 271 272 273 274 276 276 275 276 279 283 288 293 296 299 304 306 301
264 264 266 257 263 267 265 263 260 267 266 257 254 253 261 263 263 261 259 258 259 263 265 267 270 272 271 271 271 271 273 272 269 271 273 278 283 286 289 292 296 300 307 310
253 253 253 252 261 269 264 272 274 270 268 264 263 261 257 254 252 252 254 256 260 265 272 277 278 272 273 274 274 273 272 271 272 270 274 275 277 280 284 288 292 296 304 307
264 270 273 276 279 283 283 281 272 266 261 258 255 254 250 246 247 248 252 258 265 272 279 277 276 273 274 275 275 273 272 270 268 272 272 272 275 277 280 283 287 293 299 302
276 279 280 278 278 278 275 271 265 260 252 249 246 238 234 237 242 249 260 272 281 281 274 276 279 281 281 279 278 275 272 271 270 268 268 268 269 272 274 277 283 289 293 297
268 269 271 272 270 267 262 262 250 237 232 226 222 223 231 239 249 261 272 280 280 282 287 288 288 290 288 285 280 276 273 271 268 266 264 265 266 267 270 275 279 284 288 292
274 272 269 263 252 238 228 223 218 208 203 205 214 227 234 248 261 276 281 286 287 293 296 297 297 297 294 290 285 282 280 275 269 264 261 264 266 267 269 273 277 283 287 291
267 256 241 223 208 196 187 185 184 185 188 193 202 220 246 268 283 293 296 305 306 305 308 311 312 311 308 300 294 288 283 278 274 271 270 269 268 269 271 274 279 282 286 292
189 178 173 168 166 168 167 164 166 167 171 173 191 224 255 282 296 305 307 315 315 323 330 332 330 324 315 310 306 299 291 283 282 279 275 273 272 273 275 277 280 283 288 290
142 144 147 145 146 149 151 152 154 158 174 191 214 246 271 286 297 311 315 318 322 323 326 321 315 309 312 308 300 297 293 291 288 285 281 278 277 277 279 282 283 287 289 291
137 141 138 139 145 148 148 152 156 162 183 225 252 279 302 314 315 324 326 323 321 315 314 315 312 309 312 307 304 301 298 295 291 288 287 284 283 284 284 285 289 291 291 292
126 130 132 135 137 140 143 151 158 179 198 256 309 325 333 336 334 327 322 318 317 316 316 314 311 311 308 308 308 307 304 300 295 292 291 291 289 288 288 290 291 291 292 293
130 127 131 135 135 142 148 154 167 241 294 302 316 331 329 329 326 324 321 320 321 319 318 319 318 319 318 316 312 310 307 304 301 299 296 294 293 294 295 294 293 294 294 296